Huntington, WV

10:16 AM EST on December 07, 2016 (GMT -0500)
Tri-State / Ferguson

Weather History for KHTS - February, 2012

Change the Weather History Date:

Thursday, February 2, 2012

  Actual Average Record
Temperature  
Mean Temperature 48 °F 35 °F  
Max Temperature 55 °F 44 °F 70 °F (2016)
Min Temperature 41 °F 26 °F -2 °F (1905)
Degree Days  
Heating Degree Days 17 30  
Month to date heating degree days 28 60  
Since 1 July heating degree days 2359 2784  
Cooling Degree Days 0 0  
Month to date cooling degree days 0 0  
Year to date cooling degree days 0 0  
Moisture  
Dew Point 43 °F    
Average Humidity 70    
Maximum Humidity 96    
Minimum Humidity 43    
Precipitation  
Precipitation 0.48 in 0.11 in 1.23 in (1956)
Month to date precipitation 0.51 0.22  
Year to date precipitation 2.67 3.19  
Snow  
Snow 0.00 in - - ()
Month to date snowfall 0.0  
Since 1 September snowfall 0.3  
Snow Depth 0.00 in    
Sea Level Pressure  
Sea Level Pressure 30.15 in    
Wind  
Wind Speed 5 mph (NW)    
Max Wind Speed 15 mph    
Max Gust Speed 24 mph    
Visibility 6 miles    
Events Rain , Thunderstorm    
T = Trace of Precipitation, MM = Missing Value Source: NWS Daily Summary

Daily Weather History Graph

Daily Weather History Graph

Search for Another Location

Airport or City:

Trip Planner

Search our weather history database for the weather conditions in past years. The results will help you decide how hot, cold, wet, or windy it might be!

Date:

Astronomy

Feb. 02, 2012 Rise Set
Actual Time 7:34 AM EST 5:53 PM EST
Civil Twilight 7:07 AM EST 6:21 PM EST
Nautical Twilight 6:35 AM EST 6:52 PM EST
Astronomical Twilight 6:04 AM EST 7:23 PM EST
Moon 1:05 PM EST (2/2) 3:14 AM EST (2/2)
Length of Visible Light 11h 14m
Length of Day
10h 18m
Waxing Gibbous, 73% of the Moon is Illuminated
Feb 2
Waxing Gibbous
Feb 7
Full
Feb 14
Last Quarter
Feb 21
New
Feb 29
First Quarter

Hourly Weather History & Observations

Time (EST) Temp. Windchill Dew Point Humidity Pressure Visibility Wind Dir Wind Speed Gust Speed Precip Events Conditions
12:13 AM 53.6 °F - 51.8 °F 94% 30.00 in 7.0 mi SSW 3.5 mph - N/A Thunderstorm Mostly Cloudy
12:23 AM 51.8 °F - 51.8 °F 100% 30.00 in 7.0 mi SSW 4.6 mph - N/A   Mostly Cloudy
12:31 AM 51.8 °F - 51.8 °F 100% 30.00 in 7.0 mi SW 3.5 mph - N/A Thunderstorm Overcast
12:42 AM 51.8 °F - 51.8 °F 100% 30.01 in 1.8 mi Variable 4.6 mph - 0.02 in Rain , Thunderstorm Heavy Rain
12:51 AM 52.0 °F - 51.1 °F 97% 30.02 in 1.0 mi NW 13.8 mph 19.6 mph 0.14 in Rain , Thunderstorm Heavy Rain
1:06 AM 51.8 °F - 50.0 °F 94% 30.01 in 3.0 mi WNW 4.6 mph - 0.13 in Rain , Thunderstorm Thunderstorms and Rain
1:32 AM 51.8 °F - 50.0 °F 94% 30.01 in 3.0 mi Calm Calm - 0.19 in Rain Rain
1:51 AM 50.0 °F - 50.0 °F 100% 30.00 in 2.5 mi Calm Calm - 0.27 in Rain Rain
1:59 AM 51.8 °F - 50.0 °F 94% 30.01 in 5.0 mi Calm Calm - 0.02 in Rain Light Rain
2:49 AM 50.0 °F - 50.0 °F 100% 30.02 in 1.0 mi SSW 3.5 mph - 0.02 in   Overcast
2:51 AM 50.0 °F - 50.0 °F 100% 30.01 in 0.8 mi SSW 4.6 mph - 0.02 in   Overcast
3:06 AM 50.0 °F - 48.2 °F 94% 30.01 in 1.5 mi WSW 4.6 mph - N/A   Overcast
3:12 AM 50.0 °F - 48.2 °F 94% 30.02 in 3.0 mi SW 4.6 mph - N/A   Overcast
3:51 AM 50.0 °F - 50.0 °F 100% 30.02 in 2.5 mi WNW 3.5 mph - 0.00 in Rain Rain
4:06 AM 51.8 °F - 50.0 °F 94% 30.02 in 5.0 mi West 3.5 mph - 0.05 in Rain Light Rain
4:51 AM 48.0 °F - 46.0 °F 93% 30.04 in 7.0 mi NW 12.7 mph 18.4 mph 0.05 in   Overcast
5:02 AM 48.2 °F - 44.6 °F 87% 30.05 in 9.0 mi NNW 8.1 mph - N/A   Overcast
5:16 AM 46.4 °F 43.5 °F 44.6 °F 93% 30.05 in 9.0 mi NW 5.8 mph - N/A   Mostly Cloudy
5:26 AM 46.4 °F 42.9 °F 44.6 °F 93% 30.06 in 9.0 mi NNW 6.9 mph - N/A   Scattered Clouds
5:51 AM 46.0 °F 43.9 °F 44.1 °F 93% 30.08 in 8.0 mi NNW 4.6 mph - N/A   Scattered Clouds
6:15 AM 46.4 °F 42.4 °F 44.6 °F 93% 30.10 in 6.0 mi NW 8.1 mph - N/A   Overcast
6:51 AM 44.1 °F 40.8 °F 42.1 °F 93% 30.12 in 5.0 mi NW 5.8 mph - N/A   Scattered Clouds
7:00 AM 44.6 °F 40.7 °F 42.8 °F 93% 30.13 in 5.0 mi NW 6.9 mph - N/A   Scattered Clouds
7:09 AM 44.6 °F 40.7 °F 42.8 °F 93% 30.14 in 4.0 mi NW 6.9 mph - N/A   Mostly Cloudy
7:51 AM 43.0 °F 38.8 °F 41.0 °F 93% 30.16 in 4.0 mi NNW 6.9 mph - N/A   Overcast
8:07 AM 42.8 °F 38.6 °F 39.2 °F 87% 30.17 in 2.5 mi NW 6.9 mph - N/A   Overcast
8:51 AM 42.1 °F 38.4 °F 39.9 °F 92% 30.20 in 2.5 mi NNW 5.8 mph - N/A   Overcast
9:16 AM 42.8 °F 38.0 °F 39.2 °F 87% 30.22 in 3.0 mi NNW 8.1 mph - N/A   Overcast
9:51 AM 42.1 °F 38.4 °F 39.0 °F 89% 30.24 in 3.0 mi NW 5.8 mph - N/A   Overcast
10:43 AM 44.6 °F 43.1 °F 39.2 °F 81% 30.26 in 5.0 mi West 3.5 mph - N/A   Haze
10:51 AM 44.1 °F 41.5 °F 37.9 °F 79% 30.27 in 5.0 mi WNW 4.6 mph - N/A   Haze
11:51 AM 48.0 °F - 39.0 °F 71% 30.27 in 8.0 mi WSW 3.5 mph - N/A   Clear
12:51 PM 51.1 °F - 37.9 °F 61% 30.26 in 10.0 mi Variable 4.6 mph - N/A   Clear
1:51 PM 53.1 °F - 36.0 °F 52% 30.24 in 10.0 mi Variable 3.5 mph - N/A   Clear
2:51 PM 54.0 °F - 35.1 °F 49% 30.24 in 10.0 mi NNW 10.4 mph - N/A   Clear
3:51 PM 55.4 °F - 33.8 °F 44% 30.26 in 10.0 mi NNW 8.1 mph - N/A   Clear
4:51 PM 54.0 °F - 33.1 °F 45% 30.28 in 10.0 mi NW 5.8 mph - N/A   Clear
5:51 PM 50.0 °F - 32.0 °F 50% 30.30 in 10.0 mi NNW 3.5 mph - N/A   Clear
6:51 PM 50.0 °F - 32.0 °F 50% 30.32 in 10.0 mi NNW 4.6 mph - N/A   Clear
7:51 PM 46.9 °F - 32.0 °F 56% 30.35 in 10.0 mi North 5.8 mph - N/A   Clear
8:51 PM 45.0 °F 42.6 °F 32.0 °F 60% 30.36 in 10.0 mi North 4.6 mph - N/A   Clear
9:51 PM 43.0 °F 41.3 °F 33.1 °F 68% 30.39 in 10.0 mi NNE 3.5 mph - N/A   Clear
10:51 PM 41.0 °F 37.1 °F 33.1 °F 73% 30.39 in 10.0 mi NE 5.8 mph - N/A   Clear
11:51 PM 41.0 °F - 32.0 °F 70% 30.40 in 10.0 mi Calm Calm - N/A   Clear